Probability
0 0 0 0 0 0 0 0 0 0 0 0 0 0 0 0 0 0 0 0 0 0 0 0 0 0 0 0 0 0 0 0 0 0 0 0 0 0 0 0 0 0 0 0
0 0 0 0 0 0 0 0 0 0 0 0 0 0 0 0 0 0 0 0 0 0 0 0 0 0 0 0 0 0 0 0 0 0 0 0 0 0 0 0 0 0 0 0
0 0 0 0 0 0 0 0 0 0 0 0 0 0 0 0 0 0 0 0 0 0 0 0 0 0 0 0 0 0 0 0 0 0 0 0 0 0 0 0 0 0 0 0
0 0 0 0 0 0 0 0 0 0 0 0 0 0 0 0 0 0 0 0 0 0 0 0 0 0 0 0 0 0 0 0 0 0 0 0 0 0 0 0 0 0 0 0
0 0 0 0 0 0 0 0 0 0 0 0 0 0 0 0 0 0 0 0 0 0 0 0 0 0 0 0 0 0 0 0 0 0 0 0 0 0 0 0 0 0 0 0
0 0 0 0 0 0 0 0 0 0 0 0 0 0 0 0 0 0 0 0 0 0 0 0 0 0 0 0 0 0 0 0 0 0 0 0 0 0 0 0 0 0 0 0
0 0 0 0 0 0 0 0 0 0 0 0 0 0 0 0 0 0 0 0 0 0 0 0 0 0 0 0 0 0 0 0 0 0 0 0 0 0 0 0 0 0 0 0
0 0 0 0 0 0 0 0 0 0 0 0 0 0 0 0 0 0 0 0 0 0 0 0 0 0 0 0 0 0 0 0 0 0 0 0 0 0 0 0 0 0 0 0
0 0 0 0 0 0 0 0 0 0 0 0 0 0 0 0 0 0 0 0 0 0 0 0 0 0 0 0 0 0 0 0 0 0 0 0 0 0 0 0 0 0 0 0
0 0 0 0 0 0 0 0 0 0 0 0 0 0 0 0 0 0 0 0 0 0 0 0 0 0 0 0 0 0 0 0 0 0 0 0 0 0 0 0 0 0 0 0
0 0 0 0 0 0 0 0 0 0 0 0 0 0 0 0 0 0 0 0 0 0 0 0 0 0 0 0 0 0 0 0 0 0 0 0 0 0 0 0 0 0 0 0
0 0 0 0 0 0 0 0 0 0 0 0 0 0 0 0 0 0 0 0 0 0 0 0 0 0 0 0 0 0 0 0 0 0 0 0 0 0 0 0 0 0 0 0
0 0 0 0 0 0 0 0 0 0 0 0 0 0 0 0 0 0 0 0 0 0 0 0 0 0 0 0 0 0 0 0 0 0 0 0 0 0 0 0 0 0 0 0
0 0 0 0 0 0 0 0 0 0 0 0 0 0 0 0 0 0 0 0 0 0 0 0 0 0 0 0 0 0 0 0 0 0 0 0 0 0 0 0 0 0 0 0
0 0 0 0 0 0 0 0 0 0 0 0 0 0 0 0 0 0 0 0 0 0 0 0 0 0 0 0 0 0 0 0 0 0 0 0 0 0 0 0 0 0 0 0
0 0 0 0 0 0 0 0 0 0 0 0 0 0 0 0 0 0 0 0 0 0 0 0 0 0 0 0 0 0 0 0 0 0 0 0 0 0 0 0 0 0 0 0
0 0 0 0 0 0 0 0 0 0 0 0 0 0 0 0 0 0 0 0 0 0 0 0 0 0 0 0 0 0 0 0 0 0 0 0 0 0 0 0 0 0 0 0
0 0 0 0 0 0 0 0 0 0 0 0 0 0 0 0 0 0 0 0 0 0 0 0 0 0 0 0 0 0 0 0 0 0 0 0 0 0 0 0 0 0 0 0
0 0 0 0 0 0 0 0 0 0 0 0 0 0 0 0 0 0 0 0 0 0 0 0 0 0 0 0 0 0 0 0 0 0 0 0 0 0 0 0 0 0 0 0
0 0 0 0 0 0 0 0 0 0 0 0 0 0 0 0 0 0 0 0 0 0 0 0 0 0 0 0 0 0 0 0 0 0 0 0 0 0 0 0 0 0 0 0
0 0 0 0 0 0 0 0 0 0 0 0 0 0 0 0 0 0 0 0 0 0 0 0 0 0 0 0 0 0 0 0 0 0 0 0 0 0 0 0 0 0 0 0
0 0 0 0 0 0 0 0 0 0 0 0 0 0 0 0 0 0 0 0 0 0 0 0 0 0 0 0 0 0 0 0 0 0 0 0 0 0 0 0 0 0 0 0
0 0 0 0 0 0 0 0 0 0 0 0 0 0 0 0 0 0 0 0 0 0 0 0 0 0 0 0 0 0 0 0 0 0 0 0 0 0 0 0 0 0 0 0
0 0 0 0 0 0 0 0 0 0 0 0 0 0 0 0 0 0 0 0 0 0 0 0 0 0 0 0 0 0 0 0 0 0 0 0 0 0 0 0 0 0 0 0
0 0 0 0 0 0 0 0 0 0 0 0 0 0 0 0 0 0 0 0 0 0 0 0 0 0 0 0 0 0 0 0 0 0 0 0 0 0 0 0 0 0 0 0
0 0 0 0 0 0 0 0 0 0 0 0 0 0 0 0 0 0 0 0 0 0 0 0 0 0 0 0 0 0 0 0 0 0 0 0 0 0 0 0 0 0 0 0
0 0 0 0 0 0 0 0 0 0 0 0 0 0 0 0 0 0 0 0 0 0 0 0 0 0 0 0 0 0 0 0 0 0 0 0 0 0 0 0 0 0 0 0
Wind_Speed
4 5 15 16 18 20 20 19 16 14 17 16 8 7 8 10 12 12 12 13 14 14 12 11 10 9 7 7 6 4 3 1 1 3 4 5 6 7 8 8 9 10 11 11
3 4 9 12 18 21 22 22 21 17 15 5 3 7 10 10 11 11 11 12 13 13 13 12 11 9 8 7 6 5 3 1 1 4 5 6 7 8 9 10 10 11 12 12
3 5 4 10 16 20 21 23 21 21 16 8 9 10 11 10 9 9 9 10 11 12 11 10 10 9 8 7 6 4 2 1 3 5 6 7 8 9 10 10 11 12 13 13
4 4 6 2 1 12 18 17 18 16 5 10 10 10 8 7 8 7 6 6 8 9 10 10 9 8 7 6 4 3 1 1 3 5 7 8 9 9 10 10 12 13 13 14
4 6 6 3 4 6 9 12 12 12 9 10 13 12 7 5 6 6 4 4 6 9 10 10 9 8 7 5 4 2 1 2 4 6 8 9 10 11 11 12 12 13 13 14
2 4 5 1 3 4 4 5 8 11 14 15 13 10 8 6 6 6 5 6 8 9 10 10 9 7 6 4 2 1 2 3 5 6 8 10 10 11 11 12 13 13 13 13
8 4 7 2 4 4 5 5 10 11 13 12 7 4 9 7 6 6 7 8 9 9 9 8 7 6 5 3 1 1 3 4 6 7 8 10 11 11 12 12 13 13 13 12
7 5 10 4 5 5 4 8 11 12 11 10 9 8 7 7 7 7 7 9 8 8 8 7 6 5 4 2 0 2 3 5 6 8 8 8 10 11 12 12 13 13 13 11
8 6 2 2 2 1 7 11 10 9 8 10 9 7 6 5 5 5 7 7 7 7 7 6 5 4 3 2 1 3 4 6 7 9 9 9 10 11 11 11 11 11 11 11
4 3 2 3 3 6 8 10 9 9 9 7 7 6 5 4 4 4 5 7 7 8 7 6 5 4 3 2 1 4 6 7 8 9 10 10 9 9 10 10 11 11 12 12
5 4 4 3 5 9 10 10 10 9 6 6 6 5 3 3 3 4 5 6 7 7 7 7 6 5 3 2 1 5 6 8 8 8 10 10 10 9 10 10 11 13 13 13
8 13 10 12 12 12 12 10 9 9 6 4 3 2 0 1 1 3 5 7 8 7 7 7 6 4 3 0 3 5 7 7 8 8 9 9 10 11 11 13 16 19 21 18
6 9 7 14 13 10 10 9 7 6 5 5 4 2 1 1 2 4 6 7 7 7 6 6 5 3 2 3 5 7 8 8 8 9 9 10 10 11 12 13 14 16 18 20
11 12 11 11 10 10 10 9 8 7 5 4 3 2 2 2 3 4 5 6 6 6 5 4 4 4 3 4 6 7 8 9 8 8 9 9 10 11 11 12 13 12 15 17
6 4 10 14 13 10 9 7 6 5 4 2 2 3 5 5 5 5 5 5 5 4 4 4 4 5 4 5 6 8 8 7 8 9 9 10 10 10 11 11 12 12 13 14
9 9 11 12 11 8 6 5 5 4 4 3 4 5 5 4 3 4 5 6 5 5 5 4 5 4 4 5 7 7 8 10 10 9 9 10 10 10 11 11 12 12 12 12
15 9 8 8 8 8 6 6 4 4 5 5 5 5 5 4 4 5 5 5 5 4 4 4 5 4 4 6 7 7 8 8 10 9 9 9 10 10 11 11 11 12 12 13
11 13 13 15 12 9 7 5 4 4 4 4 4 5 5 6 6 6 6 5 5 5 5 4 4 5 6 6 7 8 7 8 8 9 9 10 10 11 10 11 11 12 12 14
11 13 12 11 9 8 7 5 4 3 3 3 4 4 5 5 5 4 5 5 5 5 2 2 4 6 6 8 9 8 8 9 9 10 10 12 11 10 10 10 11 12 12 11
12 12 12 10 8 7 6 5 3 2 2 2 3 4 4 5 4 5 5 5 4 2 2 3 5 6 7 9 10 8 8 10 10 10 10 10 10 10 10 12 12 12 12 12
12 11 10 9 8 6 5 4 3 2 2 4 5 5 5 4 4 4 3 3 1 1 3 5 5 6 7 9 10 8 8 9 10 10 10 10 10 10 10 11 11 11 11 11
9 9 8 8 7 5 4 3 2 2 3 4 4 4 4 3 3 2 3 2 1 2 4 5 6 8 11 13 9 8 9 10 9 9 9 9 9 10 11 11 11 10 10 10
7 7 7 7 6 5 4 3 2 3 3 3 4 3 3 2 1 1 1 0 2 5 6 6 9 13 15 11 8 8 9 9 9 9 9 9 9 10 10 10 11 10 10 10
7 7 6 6 6 6 5 3 3 4 4 5 5 4 4 2 1 1 1 3 5 7 7 8 11 14 13 8 7 8 8 9 9 9 10 10 9 9 9 10 10 10 10 12
6 6 6 6 6 5 5 5 5 6 6 6 6 5 4 3 2 1 3 4 6 7 7 9 12 12 8 7 8 8 8 9 9 10 10 9 9 9 9 10 10 11 10 10
6 6 5 5 5 5 5 5 5 5 5 5 4 3 2 2 2 2 3 5 6 7 7 7 8 8 8 8 9 9 9 10 10 10 10 10 10 9 9 10 11 10 10 10
7 7 6 5 4 4 5 5 5 5 4 3 3 2 1 2 3 4 4 5 5 6 6 7 7 8 8 9 9 10 10 10 11 11 10 9 9 9 9 10 9 9 9 9
Wind_Direction
224 170 179 189 192 193 205 215 231 236 238 245 218 179 167 163 166 168 172 177 183 184 180 175 170 165 158 152 151 152 158 138 35 338 335 336 329 324 319 313 311 316 315 313
149 151 194 208 207 203 214 218 229 250 253 241 180 169 166 166 165 169 172 180 185 185 181 176 172 167 159 158 162 176 179 158 329 322 325 326 324 319 312 311 313 314 313 313
148 115 158 229 211 206 214 220 224 235 246 174 172 184 176 162 157 157 163 173 181 183 179 173 169 163 164 162 165 174 180 316 321 322 320 318 313 308 310 315 316 315 315 314
80 92 218 229 347 219 221 229 231 242 223 189 172 143 123 123 129 126 138 165 175 173 168 162 154 156 152 153 160 169 195 309 324 318 310 307 307 312 320 319 317 316 314 312
151 195 265 229 173 165 198 236 216 215 176 145 134 130 112 91 86 93 101 133 155 158 156 152 154 152 152 154 158 181 280 323 317 309 306 308 315 324 322 318 314 312 312 310
208 232 247 216 158 178 181 240 173 169 153 148 157 173 147 124 108 103 106 123 135 139 146 150 147 151 161 156 153 226 311 320 310 304 304 313 321 320 316 313 309 311 308 311
211 234 284 231 153 170 205 187 147 148 145 149 154 108 118 127 119 117 120 129 137 144 149 147 148 155 151 145 166 314 315 309 303 305 313 319 318 315 313 310 309 309 310 314
177 193 252 172 146 214 159 134 139 134 134 127 124 127 129 133 135 139 138 145 150 151 147 144 147 152 151 170 158 297 304 304 309 317 318 313 309 309 311 310 310 314 317 317
187 209 252 251 272 158 148 137 134 127 129 131 136 143 144 146 152 160 162 161 162 160 153 150 144 150 183 166 247 297 307 312 316 314 311 309 307 307 308 313 316 318 318 316
193 215 233 222 141 125 121 117 118 123 128 135 138 144 156 169 182 186 183 178 175 175 172 164 160 175 192 183 256 304 315 316 313 309 310 308 307 307 312 317 319 317 315 315
185 186 153 179 154 132 117 114 110 104 109 120 137 157 178 210 220 209 193 186 182 185 184 177 174 184 186 193 299 313 310 301 301 305 305 307 310 313 309 308 309 307 307 308
188 179 172 170 157 148 137 133 131 126 116 86 73 97 76 292 248 203 190 180 182 184 180 170 178 189 186 235 304 294 293 301 308 306 307 311 312 311 306 301 302 301 302 301
158 147 144 142 145 147 133 128 118 110 109 113 91 88 128 199 194 180 174 174 178 179 173 166 177 198 218 256 265 273 286 299 305 307 310 312 314 313 313 314 310 304 303 304
136 125 131 146 144 138 126 118 109 98 90 92 118 153 183 181 166 173 174 171 171 167 161 166 195 228 239 256 267 278 290 298 302 306 308 310 311 311 312 314 316 314 311 308
129 105 135 131 123 119 113 113 111 113 116 122 168 213 214 207 201 187 163 153 152 164 182 200 230 249 251 264 277 291 297 302 308 309 310 310 310 310 310 311 311 311 314 315
113 101 113 118 122 121 116 128 142 153 165 183 205 216 218 216 198 162 157 162 177 203 211 223 252 273 282 285 293 295 297 305 309 311 312 312 311 311 312 311 311 314 316 319
130 131 127 127 139 145 148 150 154 160 176 195 206 204 199 188 179 180 181 187 210 226 223 238 263 286 291 293 298 301 306 311 313 310 308 310 310 310 311 312 313 312 315 319
145 147 152 151 150 148 148 152 161 173 189 186 181 182 190 199 207 199 188 188 207 226 236 248 274 289 292 301 307 307 307 309 309 307 308 307 307 309 310 310 311 313 316 319
127 126 126 126 130 131 136 149 158 156 149 154 172 197 211 218 214 184 172 192 220 245 242 241 286 292 302 315 316 310 305 304 305 305 305 306 307 308 311 310 312 315 317 319
119 117 118 118 120 128 134 131 128 126 135 177 202 209 211 204 188 175 181 210 238 272 310 304 304 310 315 316 312 303 301 304 305 306 306 307 309 311 312 312 314 317 318 319
130 131 135 140 137 127 119 121 140 175 181 195 209 212 203 184 177 177 198 234 203 262 299 306 308 311 311 306 304 304 306 305 305 306 307 307 309 311 313 314 316 315 313 314
142 147 148 142 134 124 112 114 148 186 193 195 198 186 169 161 165 191 235 271 348 322 306 303 308 310 310 310 310 309 306 305 305 306 306 308 310 311 311 310 310 310 311 313
145 141 135 135 136 131 123 122 159 183 177 163 159 154 140 129 155 214 250 7 312 311 306 306 310 311 314 314 311 307 306 305 305 305 306 307 307 305 304 306 308 310 311 310
131 128 124 125 130 141 143 125 110 107 103 97 90 94 102 110 102 56 4 329 317 311 306 307 311 316 318 314 308 305 304 303 304 305 304 304 303 302 304 305 306 308 309 310
115 115 124 140 146 142 132 128 117 108 104 98 90 79 66 46 28 354 322 312 311 310 307 310 316 320 316 307 306 305 303 300 299 300 304 306 303 302 303 305 307 308 310 313
133 133 130 126 125 131 136 134 123 122 123 114 96 76 61 36 353 327 317 315 314 312 312 313 313 313 311 306 303 301 300 301 303 304 305 301 300 303 305 306 307 309 310 308
120 123 120 108 95 103 111 113 111 104 99 110 115 94 29 352 338 331 323 317 313 312 311 309 308 308 307 305 302 302 302 301 301 301 300 301 302 301 302 303 305 305 304 303